FW8377 Weather Reports


Display with metric or nautical units.
time (UTC)temp
F
wind
direction
speed
MPH
gust
MPH
rain 1hr
in
rain 24hr
in
rain mn
in
humidity
%
barometer
mb
20260507215539 62 167 2.0 4.0 0.00 0.22 0.22 72 1014.1
20260507214537 62 155 2.0 5.0 0.00 0.24 0.22 74 1014.2
20260507213535 63 172 1.0 4.0 0.00 0.26 0.22 71 1014.1
20260507212535 63 172 1.0 2.0 0.00 0.26 0.22 69 1014.3
20260507211534 63 159 1.0 4.0 0.00 0.26 0.22 71 1014.3
20260507210533 63 145 2.0 5.0 0.00 0.26 0.22 71 1014.4
20260507205531 63 132 0.0 3.0 0.00 0.26 0.22 72 1014.2
20260507204530 63 139 0.0 2.0 0.00 0.26 0.22 74 1014.3
20260507203528 63 153 1.0 3.0 0.00 0.28 0.22 76 1014.4
20260507201526 63 216 0.0 3.0 0.00 0.28 0.22 74 1014.4
20260507200546 63 201 1.0 2.0 0.00 0.28 0.22 74 1014.2
20260507195523 64 182 1.0 3.0 0.00 0.28 0.22 72 1014.3
20260507194542 65 180 1.0 2.0 0.00 0.28 0.22 69 1014.2
20260507193519 66 0.0 2.0 0.00 0.28 0.22 66 1014.2
20260507192518 67 12 0.0 2.0 0.00 0.28 0.22 65 1014.2
20260507191516 67 214 1.0 3.0 0.00 0.28 0.22 64 1014.2
20260507190615 68 207 2.0 6.0 0.00 0.28 0.22 63 1014.1
20260507185613 67 242 1.0 4.0 0.00 0.28 0.22 63 1014.1
20260507184611 69 290 1.0 3.0 0.00 0.28 0.22 61 1014.0
20260507183609 69 152 2.0 5.0 0.00 0.28 0.22 59 1013.9
20260507182608 69 134 2.0 4.0 0.00 0.29 0.22 59 1014.0
20260507181607 70 117 1.0 3.0 0.00 0.30 0.22 58 1014.1
20260507180605 70 105 1.0 3.0 0.00 0.33 0.22 57 1014.1
20260507175604 71 95 1.0 3.0 0.00 0.39 0.22 57 1014.1
20260507174603 71 133 2.0 6.0 0.00 0.41 0.22 55 1014.1
20260507173603 71 101 2.0 5.0 0.00 0.41 0.22 54 1014.0
20260507172621 72 116 2.0 5.0 0.00 0.41 0.22 52 1014.0
20260507171620 72 113 3.0 9.0 0.00 0.41 0.22 52 1014.0
20260507170559 73 124 3.0 8.0 0.00 0.41 0.22 50 1013.9
20260507165558 73 114 3.0 6.0 0.00 0.41 0.22 46 1013.8
20260507164557 73 144 2.0 6.0 0.00 0.41 0.22 41 1013.9
20260507163557 73 131 3.0 7.0 0.00 0.41 0.22 41 1013.8
20260507162615 74 192 1.0 7.0 0.00 0.41 0.22 38 1013.8
20260507161553 74 159 1.0 5.0 0.00 0.41 0.22 36 1013.8
20260507160552 74 181 2.0 6.0 0.00 0.41 0.22 34 1013.7
20260507155551 74 171 3.0 7.0 0.00 0.41 0.22 32 1013.7
20260507154550 75 176 4.0 8.0 0.00 0.41 0.22 32 1013.8
20260507153550 73 173 2.0 5.0 0.00 0.41 0.22 37 1013.9
20260507152548 74 152 5.0 10.0 0.00 0.41 0.22 38 1014.0
20260507151547 74 173 4.0 8.0 0.00 0.41 0.22 42 1014.1
20260507150546 74 152 3.0 10.0 0.00 0.41 0.22 44 1014.0
20260507145544 73 184 2.0 7.0 0.00 0.41 0.22 46 1014.3
20260507144544 73 171 6.0 12.0 0.00 0.41 0.22 49 1014.3
20260507143543 73 175 5.0 10.0 0.00 0.41 0.22 50 1014.2
20260507142542 74 138 4.0 11.0 0.00 0.41 0.22 49 1014.3
20260507141540 74 112 4.0 9.0 0.00 0.41 0.22 43 1014.6
20260507140540 74 84 4.0 13.0 0.00 0.41 0.22 45 1014.9
20260507135538 74 92 4.0 9.0 0.00 0.41 0.22 48 1015.0
20260507134538 73 291 3.0 6.0 0.00 0.41 0.22 55 1015.1
20260507133536 73 117 2.0 6.0 0.00 0.41 0.22 56 1015.2
20260507132535 72 177 4.0 8.0 0.00 0.41 0.22 58 1015.3
20260507131534 72 105 1.0 6.0 0.00 0.41 0.22 54 1015.4
20260507130533 74 111 4.0 10.0 0.00 0.41 0.22 54 1015.4
20260507125532 72 179 4.0 8.0 0.00 0.41 0.22 55 1015.7
20260507124530 73 145 2.0 6.0 0.00 0.41 0.22 55 1015.8
20260507123529 71 281 2.0 6.0 0.00 0.41 0.22 58 1015.8
20260507122528 71 225 3.0 7.0 0.00 0.41 0.22 60 1015.8
20260507121547 71 91 2.0 6.0 0.00 0.41 0.22 59 1015.9
20260507120526 70 111 4.0 7.0 0.00 0.41 0.22 61 1015.9
20260507115526 71 78 4.0 9.0 0.00 0.41 0.22 62 1015.9
20260507114524 70 99 2.0 7.0 0.00 0.41 0.22 63 1016.0
20260507113544 70 333 3.0 9.0 0.00 0.41 0.22 65 1016.2
20260507112542 69 8 3.0 7.0 0.00 0.41 0.22 65 1016.1
20260507111541 69 69 3.0 7.0 0.00 0.41 0.22 66 1016.3
20260507110520 68 351 1.0 4.0 0.00 0.41 0.22 67 1016.3
20260507105519 68 240 1.0 3.0 0.00 0.41 0.22 66 1016.4
20260507104518 68 181 4.0 5.0 0.00 0.41 0.22 67 1016.3
20260507103517 68 303 1.0 5.0 0.00 0.41 0.22 67 1016.6
20260507102516 68 179 2.0 5.0 0.00 0.41 0.22 70 1016.6
20260507101635 68 40 4.0 9.0 0.00 0.41 0.22 69 1016.7
20260507100613 67 81 4.0 7.0 0.00 0.41 0.22 72 1016.8
20260507095612 67 74 3.0 9.0 0.00 0.41 0.22 71 1016.9
20260507094612 66 165 2.0 7.0 0.00 0.41 0.22 68 1016.8
20260507093611 66 213 3.0 5.0 0.00 0.41 0.22 70 1016.8
20260507092610 65 181 4.0 7.0 0.00 0.41 0.22 73 1016.9
20260507091609 65 179 3.0 8.0 0.00 0.41 0.22 74 1016.8
20260507090608 65 172 3.0 9.0 0.00 0.41 0.22 74 1016.7
20260507085607 66 11 3.0 7.0 0.00 0.41 0.22 73 1016.9
20260507084626 65 72 2.0 6.0 0.00 0.41 0.22 74 1017.0
20260507083644 64 97 2.0 6.0 0.00 0.41 0.22 75 1017.0
20260507082603 63 36 5.0 8.0 0.00 0.41 0.22 77 1017.2
20260507081602 64 60 4.0 8.0 0.00 0.41 0.22 76 1017.1
20260507080642 65 46 6.0 10.0 0.00 0.41 0.22 74 1017.3
20260507075601 65 284 1.0 5.0 0.00 0.41 0.22 76 1017.2
20260507074600 63 195 2.0 6.0 0.00 0.41 0.22 80 1017.1
20260507073559 63 269 2.0 4.0 0.00 0.41 0.22 80 1017.1
20260507072558 63 250 2.0 5.0 0.00 0.41 0.22 82 1017.2
20260507071617 63 117 3.0 6.0 0.00 0.41 0.22 82 1017.3
20260507070556 61 152 1.0 7.0 0.00 0.41 0.22 83 1017.3
20260507065555 61 172 2.0 5.0 0.00 0.41 0.22 84 1017.2
20260507064553 61 180 2.0 5.0 0.00 0.42 0.22 86 1017.0
20260507063552 60 139 2.0 6.0 0.00 0.42 0.22 87 1017.1
20260507062550 59 120 2.0 6.0 0.00 0.42 0.22 90 1016.9
20260507061549 59 98 2.0 4.0 0.00 0.42 0.22 91 1017.0
20260507060548 58 129 1.0 4.0 0.00 0.43 0.22 92 1017.1
20260507055547 58 91 1.0 3.0 0.00 0.44 0.22 94 1017.0
20260507054547 58 41 2.0 4.0 0.00 0.45 0.22 94 1016.9
20260507053545 57 78 1.0 3.0 0.00 0.46 0.22 96 1016.9
20260507052544 57 192 0.0 2.0 0.00 0.48 0.22 97 1016.8
20260507051543 56 46 1.0 3.0 0.00 0.49 0.22 98 1016.8
20260507050543 58 14 1.0 3.0 0.00 0.49 0.22 99 1016.6
20260507045600 56 307 0.0 3.0 0.00 0.49 0.22 99 1016.6
20260507041539 56 56 1.0 2.0 0.00 0.49 0.22 99 1016.7
20260507040534 56 44 2.0 3.0 0.00 0.49 0.22 99 1016.6
20260507035535 56 28 2.0 3.0 0.00 0.49 0.22 99 1016.6
20260507034532 56 33 2.0 4.0 0.00 0.49 0.22 99 1016.7
20260507033531 56 35 1.0 4.0 0.00 0.49 0.22 99 1016.5
20260507032530 56 47 2.0 4.0 0.00 0.49 0.22 99 1016.5
20260507031529 56 8 3.0 4.0 0.00 0.49 0.22 99 1016.4
20260507030527 56 17 3.0 4.0 0.02 0.49 0.22 99 1016.6
20260507025527 56 27 3.0 4.0 0.03 0.49 0.22 99 1016.6
20260507024526 56 11 2.0 3.0 0.04 0.49 0.22 98 1016.7
20260507023525 56 353 1.0 2.0 0.04 0.49 0.22 98 1016.7
20260507022524 56 15 1.0 3.0 0.04 0.49 0.22 98 1016.9
20260507021522 56 12 2.0 3.0 0.04 0.49 0.21 98 1016.7
20260507020521 56 352 2.0 4.0 0.02 0.47 0.20 98 1016.8
20260507015540 56 9 2.0 4.0 0.01 0.46 0.19 98 1016.7
20260507014519 57 6 2.0 4.0 0.03 0.45 0.18 98 1016.6
20260507013518 57 350 2.0 4.0 0.06 0.45 0.18 97 1016.4
20260507012517 57 330 2.0 7.0 0.07 0.45 0.18 97 1016.4
20260507011516 57 27 1.0 3.0 0.10 0.45 0.18 97 1016.6
20260507010627 57 69 2.0 4.0 0.13 0.45 0.18 97 1016.7
20260507005634 57 68 2.0 5.0 0.15 0.45 0.17 96 1016.7
20260507004612 57 93 4.0 8.0 0.12 0.42 0.15 96 1016.9
20260507003611 57 59 3.0 7.0 0.10 0.40 0.12 96 1017.0
20260507002610 57 73 3.0 6.0 0.08 0.38 0.10 95 1016.8
20260507001609 58 73 4.0 9.0 0.05 0.35 0.07 95 1016.7
20260507000608 58 89 6.0 16.0 0.02 0.32 0.04 95 1016.6
20260506235608 58 68 3.0 6.0 0.00 0.30 0.02 96 1016.8
20260506234605 58 30 1.0 4.0 0.00 0.30 0.02 97 1016.7
20260506233623 58 160 3.0 5.0 0.00 0.30 0.02 97 1016.7
20260506232622 58 146 2.0 5.0 0.00 0.30 0.02 97 1016.6
20260506231601 58 122 2.0 7.0 0.01 0.30 0.02 97 1016.5
20260506230600 58 163 2.0 5.0 0.01 0.30 0.02 97 1016.5
20260506225619 58 0.0 3.0 0.03 0.30 0.02 96 1016.5
20260506224618 58 313 1.0 2.0 0.04 0.30 0.02 95 1016.4
20260506223556 58 0.0 4.0 0.07 0.30 0.02 94 1016.4
20260506222636 58 59 3.0 6.0 0.06 0.30 0.02 94 1016.4
20260506221555 58 56 4.0 6.0 0.06 0.29 0.02 94 1016.5
20260506220554 58 63 7.0 10.0 0.06 0.29 0.01 94 1016.5